This is the latest recevied weather packets stored in our database for station/object N5TDX. If no packets are shown the sender has not sent any weather packets the latest 1 day(s).
| Time | Temp. | Humidity | Pressure | Rain* | Wind** | Luminosity | Snow |
|---|---|---|---|---|---|---|---|
| 1778032012 | 22.22° C | 64% | 1004 hPa | 0 mm | - | - | - |
| 1778031708 | 22.22° C | 64% | 1003.6 hPa | 0 mm | - | - | - |
| 1778031406 | 22.22° C | 63% | 1003.9 hPa | 0 mm | - | - | - |
| 1778031103 | 22.78° C | 63% | 1003.8 hPa | 0 mm | - | - | - |
| 1778030799 | 22.78° C | 63% | 1003.3 hPa | 0 mm | - | - | - |
| 1778030496 | 22.78° C | 63% | 1003.5 hPa | 0 mm | - | - | - |
| 1778029588 | 23.33° C | 61% | 1002.8 hPa | 0 mm | - | - | - |
| 1778029285 | 23.33° C | 61% | 1003 hPa | 0 mm | - | - | - |
| 1778028982 | 23.33° C | 61% | 1003.1 hPa | 0 mm | - | - | - |
| 1778028678 | 23.33° C | 61% | 1002.6 hPa | 0 mm | - | - | - |
| 1778028375 | 23.89° C | 60% | 1002.9 hPa | 0 mm | - | - | - |
| 1778028072 | 23.89° C | 60% | 1002.9 hPa | 0 mm | - | - | - |
| 1778027768 | 23.89° C | 60% | 1002.8 hPa | 0 mm | - | - | - |
| 1778027464 | 24.44° C | 59% | 1002.9 hPa | 0 mm | - | - | - |
| 1778027160 | 24.44° C | 59% | 1002.3 hPa | 0 mm | - | - | - |
| 1778026857 | 24.44° C | 58% | 1002.6 hPa | 0 mm | - | - | - |
| 1778026553 | 25° C | 57% | 1002.5 hPa | 0 mm | - | - | - |
| 1778025645 | 25° C | 56% | 1002.5 hPa | 0 mm | - | - | - |
| 1778025343 | 25.56° C | 55% | 1002.3 hPa | 0 mm | - | - | - |
| 1778023828 | 26.67° C | 54% | 1002 hPa | 0 mm | - | - | - |
| 1778022619 | 27.22° C | 54% | 1001.7 hPa | 0 mm | - | - | - |
| 1778021709 | 28.33° C | 54% | 1001.5 hPa | 0 mm | - | - | - |
| 1778021405 | 29.44° C | 52% | 1001.5 hPa | 0 mm | - | - | - |
| 1778020496 | 30.56° C | 42% | 1001.5 hPa | 0 mm | - | - | - |
| 1778019889 | 30.56° C | 44% | 1001.2 hPa | 0 mm | - | - | - |
* Rain latest hour (hover to see other rain measurements)
** Current wind speed in m/s (hover to see current wind gust speed)